Flag for Germany Weather past 2 weeks in Wetzlar, Hesse, Germany

Now
47 °F

Partly sunny.


Feels Like: 47 °F
Forecast: 48 / 75 °F
Wind: 1 mph from South

Location: Giessen


UV Index: 3 (Moderate)

Visibility: 8 mi


Pressure: 30.14 "Hg

Humidity: 92%

Dew point: 45 °F

Location of WetzlarLocation

Historic Weather in Wetzlar

°F

Wetzlar temperature yesterday

Maximum temperature yesterday: 70 °F (at 3:00 PM)
Minimum temperature yesterday: 43 °F (at 3:00 AM)
Average temperature yesterday: 54 °F

Past Weeks' High & Low Weather Summary

 TemperatureHumidityPressure
High70 °F (Apr 23, 3:00 PM)98% (Apr 23, 6:00 AM)30.46 "Hg (Apr 23, 6:00 AM)
Low30 °F (Apr 16, 7:00 AM)31% (Apr 17, 6:00 PM)29.61 "Hg (Apr 21, 3:00 PM)
Average50 °F71%30.04 "Hg
* Reported Apr 9 8:00 AM — Apr 24 8:00 AM, Wetzlar, Weather by CustomWeather, © 2014

Note: Actual official high and low records may vary slightly from our data, if they occured in-between our weather recording intervals... More about our weather records

Advertising

Historic Weather Conditions — Data for Previous 24 hours

 ConditionsComfort  
Time TempWeatherWind HumidityBarometerVisibility
8:00 AM
Apr 24
47 °FPartly sunny.1 mph92%30.14 "Hg7 mi
7:00 AM45 °FOvercast.1 mph95%30.14 "Hg6 mi
6:00 AM45 °FOvercast.1 mph95%30.13 "Hg8 mi
5:00 AM44 °FClear.2 mph96%30.13 "Hg6 mi
4:00 AM47 °FClear.1 mph94%30.13 "Hg12 mi
3:00 AM47 °FClear.2 mph94%30.13 "Hg11 mi
2:00 AM47 °FClear.2 mph93%30.14 "Hg11 mi
1:00 AM49 °FPassing clouds.No wind91%30.14 "Hg15 mi
12:00 AM50 °FClear.No wind89%30.13 "Hg19 mi
11:00 PM
Apr 23
52 °FPassing clouds.2 mph83%30.13 "Hg22 mi
10:00 PM53 °FClear.2 mph80%30.13 "Hg25 mi
9:00 PM55 °FPassing clouds.3 mph75%30.11 "Hg34 mi
8:00 PM59 °FPartly sunny.3 mph63%30.09 "Hg40 mi
7:00 PM60 °FOvercast.7 mph57%30.09 "Hg34 mi
6:00 PM66 °FOvercast.5 mph51%30.07 "Hg28 mi
5:00 PM67 °FOvercast.3 mph45%30.06 "Hg28 mi
4:00 PM68 °FOvercast.2 mph47%30.06 "Hg28 mi
3:00 PM70 °FSunny.2 mph44%30.07 "Hg14 mi
2:00 PM68 °FSunny.2 mph47%30.08 "Hg12 mi
1:00 PM66 °FSunny.1 mph50%30.10 "Hg10 mi
12:00 PM62 °FSunny.1 mph68%30.12 "Hg6 mi
11:00 AM56 °FScattered clouds.1 mph89%30.13 "Hg6 mi
10:00 AM49 °FLow clouds.1 mph98%30.13 "Hg3 mi
9:00 AM47 °FLow clouds.1 mph98%30.13 "Hg0 mi
8:00 AM46 °FLow clouds.1 mph98%30.12 "Hg0 mi
Weather by CustomWeather, © 2014

See weather overview